User: anonymous
Location: Vancouver
(49.2500°N, 123.1330°W)
Time: 20:45:15
(UTC-07:00)
Language:

Cosmos 1408 Rocket - Orbit

View from above orbital plane
View from above orbital plane
View from above satellite
View from above satellite

Ground track
Ground track

The orbit data is extracted from the following two-line orbital elements,

1 13553U 82092B   14261.48644619  .00000459  00000-0  52473-4 0    55
2 13553 082.5658 088.0367 0023233 116.8885 304.2259 14.83587942728334
Epoch (UTC): 18 September 2014 11:40:28
Eccentricity: 0.0023233
inclination: 82.5658°
perigee height: 602 km
apogee height: 634 km
right ascension of ascending node: 88.0367°
argument of perigee: 116.8885°
revolutions per day: 14.83587942
mean anomaly at epoch: 304.2259°
orbit number at epoch: 72833

The dashed part of the orbit path shows where the satellite is in the earth's shadow,  

DLR